Location: Viterbo
(42.4170°N, 12.1000°E)
Time: 09:54:31
(UTC+01:00)

ISS - Pass Details

Date: 25 February 2019
Orbit: 406 x 411 km, 51.6° (Epoch: 20 March)

Event Time Altitude Azimuth Distance (km) Brightness Sun altitude
Exits shadow 06:21:43 - 244° (WSW) 1,834 -1.0 -6.7°
Reaches altitude 10° 06:22:38 10° 246° (WSW) 1,459 -1.5 -6.6°
Maximum altitude 06:25:53 64° 329° (NNW) 455 -3.7 -6.0°
Drops below altitude 10° 06:29:02 11° 51° (NE) 1,419 -0.4 -5.4°
Sets 06:31:15 0° 55° (NE) 2,332 0.8 -5.0°
